Monarch Pass, CO

12:27 AM MDT on March 30, 2017 (GMT -0600)
Monarch Pass

Weather History for KMYP - November, 2013

Change the Weather History Date:

Sunday, November 17, 2013

  Actual Average (KGUC) Record (KGUC)
Temperature  
Mean Temperature 18 °F -  
Max Temperature 21 °F 38 °F 55 °F (1999)
Min Temperature 14 °F 12 °F -9 °F (2000)
Degree Days  
Heating Degree Days 48    
Moisture  
Dew Point 16 °F    
Average Humidity 90    
Maximum Humidity 93    
Minimum Humidity 86    
Precipitation  
Precipitation 0.00 in - - ()
Sea Level Pressure  
Sea Level Pressure 30.10 in    
Wind  
Wind Speed 23 mph (East)    
Max Wind Speed 23 mph    
Max Gust Speed 146 mph    
Visibility 7 miles    
Events Fog , Snow    
Averages and records for this station are not official NWS values.
T = Trace of Precipitation, MM = Missing Value Source: NWS Daily Summary

Daily Weather History Graph

Daily Weather History Graph

Search for Another Location

Airport or City:

Trip Planner

Search our weather history database for the weather conditions in past years. The results will help you decide how hot, cold, wet, or windy it might be!

Date:

Astronomy

Nov. 17, 2013 Rise Set
Actual Time 6:48 AM MST 4:50 PM MST
Civil Twilight 6:20 AM MST 5:19 PM MST
Nautical Twilight 5:48 AM MST 5:51 PM MST
Astronomical Twilight 5:16 AM MST 6:22 PM MST
Moon 5:09 PM MST (11/17) 6:45 AM MST (11/17)
Length of Visible Light 10h 58m
Length of Day
10h 02m
Full, 100% of the Moon is Illuminated
Nov 17
Full
Nov 25
Last Quarter
Dec 2
New
Dec 9
First Quarter
Dec 17
Full

Hourly Weather History & Observations

Time (MST) Temp. Windchill Dew Point Humidity Pressure Visibility Wind Dir Wind Speed Gust Speed Precip Events Conditions
12:16 AM 19.4 °F - 17.6 °F 93% 29.67 in 0.2 mi North - - N/A Snow Heavy Snow
12:36 AM 19.4 °F - 15.8 °F 86% 29.68 in 0.2 mi North - - N/A Snow Heavy Snow
12:56 AM 19.4 °F - 17.6 °F 93% 29.70 in 0.2 mi North - - N/A Snow Heavy Snow
1:16 AM 19.4 °F - 15.8 °F 86% 29.71 in 0.2 mi North - - N/A Snow Heavy Snow
1:36 AM 17.6 °F - 15.8 °F 93% 29.71 in 0.2 mi North - - N/A Snow Heavy Snow
1:56 AM 17.6 °F - 15.8 °F 93% 29.73 in 0.2 mi North - - N/A Snow Heavy Snow
2:16 AM 17.6 °F - 15.8 °F 93% 29.74 in 0.2 mi North - - N/A Snow Heavy Snow
2:36 AM 17.6 °F - 15.8 °F 93% 29.76 in 0.2 mi North - - N/A Snow Heavy Snow
2:56 AM 19.4 °F - 15.8 °F 86% 29.76 in 0.2 mi North - - N/A Snow Heavy Snow
3:16 AM 19.4 °F - 15.8 °F 86% 29.77 in 0.2 mi North - - N/A Snow Heavy Snow
3:36 AM 17.6 °F - 15.8 °F 93% 29.76 in 0.2 mi North - - N/A Snow Heavy Snow
3:56 AM 17.6 °F - 15.8 °F 93% 29.79 in 0.2 mi North - - N/A Snow Heavy Snow
4:16 AM 17.6 °F - 15.8 °F 93% 29.82 in 0.2 mi North - - N/A Snow Heavy Snow
4:36 AM 17.6 °F - 14.0 °F 86% 29.84 in 0.2 mi North - - N/A Fog Light Freezing Fog
4:56 AM 17.6 °F - 14.0 °F 86% 29.86 in 0.2 mi North - - N/A Fog Light Freezing Fog
5:16 AM 17.6 °F - 14.0 °F 86% 29.87 in 0.2 mi North - - N/A Snow Light Snow
5:36 AM 17.6 °F - 14.0 °F 86% 29.90 in 1.2 mi North - - N/A Snow Light Snow
5:56 AM 15.8 °F - 12.2 °F 86% 29.94 in 2.5 mi North - - N/A Snow Light Snow
6:16 AM 15.8 °F - 12.2 °F 86% 29.91 in 1.8 mi North - - N/A Snow Light Snow
6:36 AM 14.0 °F - 12.2 °F 93% 29.93 in 2.5 mi North - - N/A Snow Light Snow
6:56 AM 14.0 °F - 12.2 °F 93% 29.99 in 2.5 mi North - - N/A   Clear
7:16 AM 14.0 °F - 12.2 °F 93% 30.02 in 5.0 mi North - - N/A   Clear
7:36 AM 14.0 °F - 12.2 °F 93% 30.05 in 10.0 mi North - - N/A   Clear
7:56 AM 15.8 °F - 12.2 °F 86% 30.07 in 10.0 mi North - - N/A   Clear
8:16 AM 15.8 °F -2.3 °F 12.2 °F 86% 30.07 in 4.0 mi East 23.0 mph 146.1 mph N/A Snow Light Snow
8:36 AM 15.8 °F - 12.2 °F 86% 30.08 in 3.0 mi North - - N/A Snow Light Snow
8:56 AM 17.6 °F - 14.0 °F 86% 30.10 in 7.0 mi North - - N/A   Clear
9:16 AM 17.6 °F - 14.0 °F 86% 30.09 in 7.0 mi North - - N/A   Clear
9:36 AM 17.6 °F - 14.0 °F 86% 30.12 in 10.0 mi North - - N/A   Clear
9:56 AM 17.6 °F - 14.0 °F 86% 30.14 in 10.0 mi North - - N/A   Clear
10:16 AM 17.6 °F - 14.0 °F 86% 30.15 in 10.0 mi North - - N/A   Scattered Clouds
10:36 AM 17.6 °F - 15.8 °F 93% 30.14 in 10.0 mi North - - N/A   Mostly Cloudy
10:56 AM 19.4 °F - 17.6 °F 93% 30.15 in 10.0 mi North - - N/A   Mostly Cloudy
11:16 AM 19.4 °F - 17.6 °F 93% 30.16 in 10.0 mi North - - N/A   Mostly Cloudy
11:36 AM 19.4 °F - 17.6 °F 93% 30.16 in 3.0 mi North - - N/A   Overcast
11:56 AM 19.4 °F - 17.6 °F 93% 30.17 in 10.0 mi North - - N/A   Mostly Cloudy
12:16 PM 19.4 °F - 17.6 °F 93% 30.16 in 10.0 mi North - - N/A   Scattered Clouds
12:36 PM 19.4 °F - 17.6 °F 93% 30.17 in 10.0 mi North - - N/A   Scattered Clouds
12:56 PM 19.4 °F - 17.6 °F 93% 30.18 in 10.0 mi North - - N/A   Scattered Clouds
1:16 PM 21.2 °F - 17.6 °F 86% 30.16 in 10.0 mi North - - N/A   Scattered Clouds
1:36 PM 21.2 °F - 19.4 °F 93% 30.18 in 10.0 mi North - - N/A   Scattered Clouds
1:56 PM 21.2 °F - 19.4 °F 93% 30.18 in 10.0 mi North - - N/A   Scattered Clouds
2:16 PM 21.2 °F - 19.4 °F 93% 30.17 in 10.0 mi North - - N/A   Scattered Clouds
2:36 PM 21.2 °F - 19.4 °F 93% 30.18 in 10.0 mi North - - N/A   Clear
2:56 PM 21.2 °F - 19.4 °F 93% 30.18 in 10.0 mi North - - N/A   Clear
3:16 PM 21.2 °F - 19.4 °F 93% 30.19 in 10.0 mi North - - N/A   Clear
3:36 PM 21.2 °F - 19.4 °F 93% 30.20 in 10.0 mi North - - N/A   Clear
3:56 PM 21.2 °F - 19.4 °F 93% 30.23 in 10.0 mi North - - N/A   Scattered Clouds
4:16 PM 21.2 °F - 19.4 °F 93% 30.23 in 10.0 mi North - - N/A   Scattered Clouds
4:36 PM 21.2 °F - 19.4 °F 93% 30.24 in 10.0 mi North - - N/A   Clear
4:56 PM 21.2 °F - 17.6 °F 86% 30.25 in 10.0 mi North - - N/A   Clear
5:16 PM 19.4 °F - 17.6 °F 93% 30.26 in 10.0 mi North - - N/A   Clear
5:36 PM 19.4 °F - 17.6 °F 93% 30.27 in 10.0 mi North - - N/A   Clear
5:56 PM 19.4 °F - 17.6 °F 93% 30.27 in 10.0 mi North - - N/A   Clear
6:16 PM 19.4 °F - 17.6 °F 93% 30.28 in 10.0 mi North - - N/A   Clear
6:36 PM 19.4 °F - 17.6 °F 93% 30.29 in 10.0 mi North - - N/A   Clear
6:56 PM 19.4 °F - 15.8 °F 86% 30.30 in 10.0 mi North - - N/A   Clear
7:16 PM 19.4 °F - 15.8 °F 86% 30.30 in 10.0 mi North - - N/A   Clear
7:36 PM 19.4 °F - 15.8 °F 86% 30.30 in 10.0 mi North - - N/A   Clear
7:56 PM 19.4 °F - 15.8 °F 86% 30.31 in 10.0 mi North - - N/A   Clear
8:16 PM 19.4 °F - 17.6 °F 93% 30.30 in 10.0 mi North - - N/A   Clear
8:36 PM 19.4 °F - 15.8 °F 86% 30.31 in 10.0 mi North - - N/A   Clear
8:56 PM 19.4 °F - 15.8 °F 86% 30.32 in 10.0 mi North - - N/A   Clear
9:16 PM 19.4 °F - 15.8 °F 86% 30.32 in 10.0 mi North - - N/A   Clear
9:36 PM 19.4 °F - 17.6 °F 93% 30.32 in 10.0 mi North - - N/A   Clear
9:56 PM 19.4 °F - 15.8 °F 86% 30.33 in 10.0 mi North - - N/A   Clear
10:16 PM 19.4 °F - 15.8 °F 86% 30.33 in 10.0 mi North - - N/A   Clear
10:36 PM 19.4 °F - 15.8 °F 86% 30.33 in 10.0 mi North - - N/A   Clear
10:56 PM 19.4 °F - 15.8 °F 86% 30.33 in 10.0 mi North - - N/A   Clear
11:16 PM 19.4 °F - 15.8 °F 86% 30.33 in 10.0 mi North - - N/A   Clear
11:36 PM 17.6 °F - 15.8 °F 93% 30.33 in 5.0 mi North - - N/A   Clear
11:56 PM 17.6 °F - 15.8 °F 93% 30.33 in 5.0 mi North - - N/A   Clear